Time,TemperatureF,DewpointF,PressureIn,WindDirection,WindDirectionDegrees,WindSpeedMPH,WindSpeedGustMPH,Humidity,HourlyPrecipIn,Conditions,Clouds,dailyrainin,SolarRadiationWatts/m^2,SoftwareType,DateUTC
2013-07-18 00:06:00,66.7,32.5,29.63,North,-999,-999.0,-999.0,5,0.00,,,-99.99,0.0,Linux-Irox,2013-07-18 07:06:00,
2013-07-18 00:16:00,66.6,32.4,29.63,North,-999,-999.0,-999.0,5,0.00,,,-99.99,0.0,Linux-Irox,2013-07-18 07:16:00,
2013-07-18 00:26:00,65.3,31.1,29.63,North,-999,-999.0,-999.0,5,0.00,,,-99.99,0.0,Linux-Irox,2013-07-18 07:26:00,
2013-07-18 00:36:00,64.9,30.7,29.63,North,-999,-999.0,-999.0,5,0.00,,,-99.99,0.0,Linux-Irox,2013-07-18 07:36:00,
2013-07-18 00:46:00,65.3,31.1,29.63,North,-999,-999.0,-999.0,5,0.00,,,-99.99,0.0,Linux-Irox,2013-07-18 07:46:00,
2013-07-18 00:56:00,66.9,32.7,29.63,North,-999,-999.0,-999.0,5,0.00,,,-99.99,0.0,Linux-Irox,2013-07-18 07:56:00,
2013-07-18 01:06:00,67.1,32.9,29.63,North,-999,-999.0,-999.0,5,0.00,,,-99.99,0.0,Linux-Irox,2013-07-18 08:06:00,
2013-07-18 01:16:00,66.4,32.2,29.63,North,-999,-999.0,-999.0,5,0.00,,,-99.99,0.0,Linux-Irox,2013-07-18 08:16:00,
2013-07-18 01:26:00,65.3,31.1,29.62,North,-999,-999.0,-999.0,5,0.00,,,-99.99,0.0,Linux-Irox,2013-07-18 08:26:00,
2013-07-18 01:36:00,64.6,30.4,29.62,North,-999,-999.0,-999.0,5,0.00,,,-99.99,0.0,Linux-Irox,2013-07-18 08:36:00,
2013-07-18 01:46:00,64.2,30.0,29.63,North,-999,-999.0,-999.0,5,0.00,,,-99.99,0.0,Linux-Irox,2013-07-18 08:46:00,
2013-07-18 01:56:00,64.2,30.0,29.63,North,-999,-999.0,-999.0,5,0.00,,,-99.99,0.0,Linux-Irox,2013-07-18 08:56:00,
2013-07-18 02:06:00,64.0,29.8,29.62,North,-999,-999.0,-999.0,5,0.00,,,-99.99,0.0,Linux-Irox,2013-07-18 09:06:00,
2013-07-18 02:16:00,63.9,29.7,29.62,North,-999,-999.0,-999.0,5,0.00,,,-99.99,0.0,Linux-Irox,2013-07-18 09:16:00,
2013-07-18 02:26:00,63.5,29.3,29.61,North,-999,-999.0,-999.0,5,0.00,,,-99.99,0.0,Linux-Irox,2013-07-18 09:26:00,
2013-07-18 02:36:00,63.5,29.3,29.61,North,-999,-999.0,-999.0,5,0.00,,,-99.99,0.0,Linux-Irox,2013-07-18 09:36:00,
2013-07-18 02:46:00,63.5,29.3,29.61,North,-999,-999.0,-999.0,5,0.00,,,-99.99,0.0,Linux-Irox,2013-07-18 09:46:00,
2013-07-18 02:56:00,63.3,29.1,29.61,North,-999,-999.0,-999.0,5,0.00,,,-99.99,0.0,Linux-Irox,2013-07-18 09:56:00,
2013-07-18 03:06:00,63.3,29.1,29.59,North,-999,-999.0,-999.0,5,0.00,,,-99.99,0.0,Linux-Irox,2013-07-18 10:06:00,
2013-07-18 03:16:00,63.0,28.8,29.59,North,-999,-999.0,-999.0,5,0.00,,,-99.99,0.0,Linux-Irox,2013-07-18 10:16:00,
2013-07-18 03:26:00,63.0,28.8,29.59,North,-999,-999.0,-999.0,5,0.00,,,-99.99,0.0,Linux-Irox,2013-07-18 10:26:00,
2013-07-18 03:36:00,63.0,28.8,29.59,North,-999,-999.0,-999.0,5,0.00,,,-99.99,0.0,Linux-Irox,2013-07-18 10:36:00,
2013-07-18 03:46:00,63.0,28.8,29.59,North,-999,-999.0,-999.0,5,0.00,,,-99.99,0.0,Linux-Irox,2013-07-18 10:46:00,
2013-07-18 03:56:00,63.0,28.8,29.59,North,-999,-999.0,-999.0,5,0.00,,,-99.99,0.0,Linux-Irox,2013-07-18 10:56:00,
2013-07-18 04:06:00,62.8,28.6,29.59,North,-999,-999.0,-999.0,5,0.00,,,-99.99,0.0,Linux-Irox,2013-07-18 11:06:00,
2013-07-18 04:16:00,62.6,28.4,29.59,North,-999,-999.0,-999.0,5,0.00,,,-99.99,0.0,Linux-Irox,2013-07-18 11:16:00,
2013-07-18 04:26:00,62.4,28.2,29.59,North,-999,-999.0,-999.0,5,0.00,,,-99.99,0.0,Linux-Irox,2013-07-18 11:26:00,
2013-07-18 04:36:00,62.4,28.2,29.59,North,-999,-999.0,-999.0,5,0.00,,,-99.99,0.0,Linux-Irox,2013-07-18 11:36:00,
2013-07-18 04:46:00,62.1,27.9,29.59,North,-999,-999.0,-999.0,5,0.00,,,-99.99,0.0,Linux-Irox,2013-07-18 11:46:00,
2013-07-18 04:56:00,61.9,27.7,29.59,North,-999,-999.0,-999.0,5,0.00,,,-99.99,0.0,Linux-Irox,2013-07-18 11:56:00,
2013-07-18 05:06:00,61.5,27.3,29.59,North,-999,-999.0,-999.0,5,0.00,,,-99.99,0.0,Linux-Irox,2013-07-18 12:06:00,
2013-07-18 05:16:00,61.5,27.3,29.59,North,-999,-999.0,-999.0,5,0.00,,,-99.99,0.0,Linux-Irox,2013-07-18 12:16:00,
2013-07-18 05:26:00,61.3,27.1,29.59,North,-999,-999.0,-999.0,5,0.00,,,-99.99,0.0,Linux-Irox,2013-07-18 12:26:00,
2013-07-18 05:36:00,61.3,27.1,29.59,North,-999,-999.0,-999.0,5,0.00,,,-99.99,0.0,Linux-Irox,2013-07-18 12:36:00,
2013-07-18 05:46:00,61.2,27.0,29.60,North,-999,-999.0,-999.0,5,0.00,,,-99.99,0.0,Linux-Irox,2013-07-18 12:46:00,
2013-07-18 05:56:00,61.2,27.0,29.60,North,-999,-999.0,-999.0,5,0.00,,,-99.99,0.0,Linux-Irox,2013-07-18 12:56:00,
2013-07-18 06:06:00,61.3,27.1,29.61,North,-999,-999.0,-999.0,5,0.00,,,-99.99,0.0,Linux-Irox,2013-07-18 13:06:00,
2013-07-18 06:16:00,61.3,27.1,29.61,North,-999,-999.0,-999.0,5,0.00,,,-99.99,0.0,Linux-Irox,2013-07-18 13:16:00,
2013-07-18 06:26:00,61.5,27.3,29.61,North,-999,-999.0,-999.0,5,0.00,,,-99.99,0.0,Linux-Irox,2013-07-18 13:26:00,
2013-07-18 06:36:00,61.7,27.5,29.61,North,-999,-999.0,-999.0,5,0.00,,,-99.99,0.0,Linux-Irox,2013-07-18 13:36:00,
2013-07-18 06:46:00,62.1,27.9,29.60,North,-999,-999.0,-999.0,5,0.00,,,-99.99,0.0,Linux-Irox,2013-07-18 13:46:00,
2013-07-18 06:56:00,64.4,30.2,29.60,North,-999,-999.0,-999.0,5,0.00,,,-99.99,0.0,Linux-Irox,2013-07-18 13:56:00,
2013-07-18 07:06:00,71.6,37.4,29.61,North,-999,-999.0,-999.0,5,0.00,,,-99.99,0.0,Linux-Irox,2013-07-18 14:06:00,
2013-07-18 07:16:00,74.7,40.5,29.61,North,-999,-999.0,-999.0,5,0.00,,,-99.99,0.0,Linux-Irox,2013-07-18 14:16:00,
2013-07-18 07:26:00,79.9,45.7,29.59,North,-999,-999.0,-999.0,5,0.00,,,-99.99,0.0,Linux-Irox,2013-07-18 14:26:00,
2013-07-18 07:36:00,82.8,48.6,29.59,North,-999,-999.0,-999.0,5,0.03,,,-99.99,0.0,Linux-Irox,2013-07-18 14:36:00,
2013-07-18 07:46:00,84.0,49.8,29.60,North,-999,-999.0,-999.0,5,0.03,,,-99.99,0.0,Linux-Irox,2013-07-18 14:46:00,
2013-07-18 07:56:00,81.9,47.7,29.60,North,-999,-999.0,-999.0,5,0.03,,,-99.99,0.0,Linux-Irox,2013-07-18 14:56:00,
2013-07-18 08:01:00,80.4,46.2,29.60,North,-999,-999.0,-999.0,5,0.03,,,-99.99,0.0,Linux-Irox,2013-07-18 15:01:00,
2013-07-18 08:16:00,81.7,47.5,29.60,North,-999,-999.0,-999.0,5,0.03,,,-99.99,0.0,Linux-Irox,2013-07-18 15:16:00,
2013-07-18 08:31:00,84.2,50.0,29.60,North,-999,-999.0,-999.0,5,0.03,,,-99.99,0.0,Linux-Irox,2013-07-18 15:31:00,
2013-07-18 08:46:00,86.9,52.7,29.61,North,-999,-999.0,-999.0,5,0.00,,,-99.99,0.0,Linux-Irox,2013-07-18 15:46:00,
2013-07-18 09:01:00,89.2,55.0,29.61,North,-999,-999.0,-999.0,5,0.00,,,-99.99,0.0,Linux-Irox,2013-07-18 16:01:00,
2013-07-18 09:16:00,90.9,56.7,29.61,North,-999,-999.0,-999.0,5,0.00,,,-99.99,0.0,Linux-Irox,2013-07-18 16:16:00,
2013-07-18 09:31:00,89.6,55.4,29.60,North,-999,-999.0,-999.0,5,0.00,,,-99.99,0.0,Linux-Irox,2013-07-18 16:31:00,
2013-07-18 09:46:00,89.8,55.6,29.60,North,-999,-999.0,-999.0,5,0.00,,,-99.99,0.0,Linux-Irox,2013-07-18 16:46:00,
2013-07-18 10:01:00,89.8,55.6,29.60,North,-999,-999.0,-999.0,5,0.00,,,-99.99,0.0,Linux-Irox,2013-07-18 17:01:00,
2013-07-18 10:16:00,90.0,55.8,29.60,North,-999,-999.0,-999.0,5,0.00,,,-99.99,0.0,Linux-Irox,2013-07-18 17:16:00,
2013-07-18 10:31:00,91.4,57.2,29.60,North,-999,-999.0,-999.0,5,0.00,,,-99.99,0.0,Linux-Irox,2013-07-18 17:31:00,
2013-07-18 10:46:00,90.5,56.3,29.59,North,-999,-999.0,-999.0,5,0.00,,,-99.99,0.0,Linux-Irox,2013-07-18 17:46:00,
2013-07-18 11:01:00,92.7,58.5,29.58,North,-999,-999.0,-999.0,5,0.00,,,-99.99,0.0,Linux-Irox,2013-07-18 18:01:00,
2013-07-18 11:16:00,91.4,57.2,29.58,North,-999,-999.0,-999.0,5,0.00,,,-99.99,0.0,Linux-Irox,2013-07-18 18:16:00,
2013-07-18 11:31:00,92.1,57.9,29.58,North,-999,-999.0,-999.0,5,0.00,,,-99.99,0.0,Linux-Irox,2013-07-18 18:31:00,
2013-07-18 11:46:00,90.9,56.7,29.58,North,-999,-999.0,-999.0,5,0.00,,,-99.99,0.0,Linux-Irox,2013-07-18 18:46:00,
2013-07-18 12:01:00,91.0,56.8,29.58,North,-999,-999.0,-999.0,5,0.00,,,-99.99,0.0,Linux-Irox,2013-07-18 19:01:00,
2013-07-18 12:16:00,90.1,55.9,29.58,North,-999,-999.0,-999.0,5,0.00,,,-99.99,0.0,Linux-Irox,2013-07-18 19:16:00,
2013-07-18 12:31:00,91.0,56.8,29.58,North,-999,-999.0,-999.0,5,0.00,,,-99.99,0.0,Linux-Irox,2013-07-18 19:31:00,
2013-07-18 12:46:00,91.4,57.2,29.58,North,-999,-999.0,-999.0,5,0.00,,,-99.99,0.0,Linux-Irox,2013-07-18 19:46:00,
2013-07-18 13:01:00,91.8,57.6,29.57,North,-999,-999.0,-999.0,5,0.00,,,-99.99,0.0,Linux-Irox,2013-07-18 20:01:00,
2013-07-18 13:16:00,91.4,57.2,29.57,North,-999,-999.0,-999.0,5,0.00,,,-99.99,0.0,Linux-Irox,2013-07-18 20:16:00,
2013-07-18 13:31:00,91.8,57.6,29.57,North,-999,-999.0,-999.0,5,0.00,,,-99.99,0.0,Linux-Irox,2013-07-18 20:31:00,
2013-07-18 13:46:00,91.6,57.4,29.56,North,-999,-999.0,-999.0,5,0.00,,,-99.99,0.0,Linux-Irox,2013-07-18 20:46:00,
2013-07-18 14:01:00,92.1,57.9,29.56,North,-999,-999.0,-999.0,5,0.00,,,-99.99,0.0,Linux-Irox,2013-07-18 21:01:00,
2013-07-18 14:16:00,92.3,58.1,29.56,North,-999,-999.0,-999.0,5,0.00,,,-99.99,0.0,Linux-Irox,2013-07-18 21:16:00,
2013-07-18 14:31:00,93.2,59.0,29.56,North,-999,-999.0,-999.0,5,0.00,,,-99.99,0.0,Linux-Irox,2013-07-18 21:31:00,
2013-07-18 14:46:00,93.4,59.2,29.55,North,-999,-999.0,-999.0,5,0.00,,,-99.99,0.0,Linux-Irox,2013-07-18 21:46:00,
2013-07-18 15:01:00,93.7,59.5,29.54,North,-999,-999.0,-999.0,5,0.00,,,-99.99,0.0,Linux-Irox,2013-07-18 22:01:00,
2013-07-18 15:16:00,94.5,60.3,29.54,North,-999,-999.0,-999.0,5,0.00,,,-99.99,0.0,Linux-Irox,2013-07-18 22:16:00,
2013-07-18 15:31:00,95.0,60.8,29.54,North,-999,-999.0,-999.0,5,0.00,,,-99.99,0.0,Linux-Irox,2013-07-18 22:31:00,
2013-07-18 15:46:00,93.9,59.7,29.54,North,-999,-999.0,-999.0,5,0.00,,,-99.99,0.0,Linux-Irox,2013-07-18 22:46:00,
2013-07-18 16:01:00,93.4,59.2,29.49,North,-999,-999.0,-999.0,5,0.00,,,-99.99,0.0,Linux-Irox,2013-07-18 23:01:00,
2013-07-18 16:16:00,93.0,58.8,29.49,North,-999,-999.0,-999.0,5,0.00,,,-99.99,0.0,Linux-Irox,2013-07-18 23:16:00,
2013-07-18 16:31:00,92.3,58.1,29.51,North,-999,-999.0,-999.0,5,0.00,,,-99.99,0.0,Linux-Irox,2013-07-18 23:31:00,
2013-07-18 16:46:00,92.1,57.9,29.51,North,-999,-999.0,-999.0,5,0.00,,,-99.99,0.0,Linux-Irox,2013-07-18 23:46:00,
2013-07-18 17:01:00,91.4,57.2,29.50,North,-999,-999.0,-999.0,5,0.00,,,-99.99,0.0,Linux-Irox,2013-07-19 00:01:00,
2013-07-18 17:16:00,90.7,56.5,29.50,North,-999,-999.0,-999.0,5,0.00,,,-99.99,0.0,Linux-Irox,2013-07-19 00:16:00,
2013-07-18 17:31:00,90.0,55.8,29.49,North,-999,-999.0,-999.0,5,0.00,,,-99.99,0.0,Linux-Irox,2013-07-19 00:31:00,
2013-07-18 17:46:00,88.9,54.7,29.51,North,-999,-999.0,-999.0,5,0.00,,,-99.99,0.0,Linux-Irox,2013-07-19 00:46:00,
2013-07-18 18:01:00,88.2,54.0,29.50,North,-999,-999.0,-999.0,5,0.00,,,-99.99,0.0,Linux-Irox,2013-07-19 01:01:00,
2013-07-18 18:16:00,87.6,53.4,29.50,North,-999,-999.0,-999.0,5,0.00,,,-99.99,0.0,Linux-Irox,2013-07-19 01:16:00,
2013-07-18 18:31:00,87.1,52.9,29.50,North,-999,-999.0,-999.0,5,0.00,,,-99.99,0.0,Linux-Irox,2013-07-19 01:31:00,
2013-07-18 18:46:00,86.4,52.2,29.49,North,-999,-999.0,-999.0,5,0.00,,,-99.99,0.0,Linux-Irox,2013-07-19 01:46:00,
2013-07-18 19:01:00,85.3,51.1,29.50,North,-999,-999.0,-999.0,5,0.00,,,-99.99,0.0,Linux-Irox,2013-07-19 02:01:00,
2013-07-18 19:16:00,84.7,50.5,29.50,North,-999,-999.0,-999.0,5,0.00,,,-99.99,0.0,Linux-Irox,2013-07-19 02:16:00,
2013-07-18 19:31:00,82.2,48.0,29.50,North,-999,-999.0,-999.0,5,0.00,,,-99.99,0.0,Linux-Irox,2013-07-19 02:31:00,
2013-07-18 19:46:00,80.6,46.4,29.50,North,-999,-999.0,-999.0,5,0.00,,,-99.99,0.0,Linux-Irox,2013-07-19 02:46:00,
2013-07-18 20:01:00,79.5,45.3,29.51,North,-999,-999.0,-999.0,5,0.00,,,-99.99,0.0,Linux-Irox,2013-07-19 03:01:00,
2013-07-18 20:16:00,76.6,42.4,29.51,North,-999,-999.0,-999.0,5,0.00,,,-99.99,0.0,Linux-Irox,2013-07-19 03:16:00,